Location: �mondeville
(49.4591°N, 1.3431°W)
Time: 18:25:49
(UTC+00:00)

Cosmos 2218 Rocket - Pass Details

Date: 22 October 2019
Orbit: 955 x 1007 km, 82.9° (Epoch: 13 November)

Event Time Altitude Azimuth Distance (km) Brightness Sun altitude
Rises 05:34:17 0° 188° (S) 3,716 7.0 -10.8°
Reaches altitude 10° 05:36:48 10° 189° (S) 2,765 6.3 -10.4°
Maximum altitude 05:43:11 86° 279° (W) 1,003 4.1 -9.4°
Drops below altitude 10° 05:49:31 10° 9° (N) 2,751 6.4 -8.4°
Sets 05:52:02 0° 10° (N) 3,696 7.1 -8.0°
